Location: Budapest
(47.4979°N, 19.0402°E)
Time: 04:52:40
(UTC+02:00)

Vanguard 1 Rocket - All Passes

Search period start: 21 October 2017 00:00
Search period end: 30 October 2017 23:00
Orbit: 655 x 4222 km, 34.3° (Epoch: 19 October)

Date Brightness Start Highest point End Pass type
(mag) Time Alt. Az. Time Alt. Az. Time Alt. Az.
21 Oct - 07:18:57 10° SSW 07:23:28 16° S 07:26:57 10° SE daylight
21 Oct - 09:44:06 10° SW 09:47:43 18° S 09:50:51 10° SE daylight
22 Oct - 06:07:57 10° SSW 06:12:34 15° SSE 06:16:09 10° SE visible
22 Oct - 08:32:34 10° SW 08:37:16 20° S 08:40:52 10° SE daylight
22 Oct - 10:58:52 10° SW 11:01:09 13° SSW 11:03:21 10° SSE daylight
23 Oct - 04:57:55 10° S 05:01:22 12° SSE 05:04:16 10° SE visible
23 Oct - 07:20:48 10° SW 07:26:37 21° S 07:30:46 10° SE daylight
23 Oct - 09:47:04 10° SW 09:50:48 18° SSW 09:53:56 10° SSE daylight
24 Oct - 06:08:58 10° SSW 06:15:43 20° SSE 06:20:25 10° ESE visible
24 Oct - 08:35:09 10° SW 08:40:22 22° S 08:44:13 10° SE daylight
24 Oct - 11:02:49 10° SW 11:04:08 11° SSW 11:05:26 10° S daylight
25 Oct - 04:57:26 10° SSW 05:04:29 17° SSE 05:09:35 10° SE visible
25 Oct - 07:22:58 10° SW 07:29:45 25° S 07:34:19 10° SE daylight
25 Oct - 09:50:10 10° WSW 09:53:49 17° SSW 09:56:53 10° SSE daylight
26 Oct - 03:46:57 10° S 03:52:57 14° SSE 03:57:38 10° SE visible
26 Oct - 06:10:32 10° SW 06:18:51 25° S 06:24:13 10° ESE visible
26 Oct - 08:37:52 10° WSW 08:43:27 23° S 08:47:28 10° SE daylight
27 Oct - 04:58:11 10° SSW 05:07:36 23° SSE 05:13:46 10° ESE visible
27 Oct - 07:25:18 10° WSW 07:32:51 28° S 07:37:44 10° SE daylight
27 Oct - 09:53:26 10° WSW 09:56:48 15° SSW 09:59:38 10° SSE daylight
28 Oct - 03:46:20 10° SSW 03:56:00 19° SSE 04:02:40 10° ESE visible
28 Oct - 06:12:25 10° SW 06:21:57 29° S 06:27:46 10° ESE visible
28 Oct - 08:40:42 10° WSW 08:46:28 23° SSW 08:50:34 10° SE daylight
29 Oct - 02:35:53 10° S 02:44:03 15° SSE 02:50:20 10° ESE visible
29 Oct - 03:59:26 10° SW 04:10:41 28° SSE 04:17:32 10° ESE visible
29 Oct - 06:27:47 10° WSW 06:35:55 30° S 06:41:01 10° SE daylight
29 Oct - 08:56:56 10° WSW 08:59:41 13° SSW 09:02:03 10° S daylight
30 Oct - 02:46:44 10° SSW 02:59:01 25° SSE 03:06:49 10° ESE visible
30 Oct - 05:14:31 10° WSW 05:25:02 33° S 05:31:12 10° ESE visible
30 Oct - 07:43:37 10° WSW 07:49:26 22° SSW 07:53:34 10° SSE daylight
